| time (UTC) | temp C | wind direction | speed KPH | gust KPH | rain 1hr cm | rain 24hr cm | rain mn cm | humidity % | barometer mb |
| 20260505210903 | 11 | 57 | 6.4 | 12.9 | 0.00 | 0.00 | 0.00 | 74 | 1041.3 |
| 20260505210003 | 11 | 51 | 1.6 | 17.7 | 0.00 | 0.00 | 0.00 | 73 | 1041.2 |
| 20260505205403 | 11 | 55 | 8.0 | 17.7 | 0.00 | 0.00 | 0.00 | 73 | 1040.9 |
| 20260505204503 | 12 | 51 | 1.6 | 14.5 | 0.00 | 0.00 | 0.00 | 71 | 1041.2 |
| 20260505203603 | 12 | 55 | 3.2 | 17.7 | 0.00 | 0.00 | 0.00 | 69 | 1041.0 |
| 20260505202703 | 12 | 48 | 6.4 | 17.7 | 0.00 | 0.00 | 0.00 | 66 | 1041.0 |
| 20260505202020 | 12 | 61 | 0.0 | 12.9 | 0.00 | 0.00 | 0.00 | 65 | 1040.9 |
| 20260505200903 | 12 | 68 | 3.2 | 11.3 | 0.00 | 0.00 | 0.00 | 68 | 1040.5 |
| 20260505200003 | 12 | 35 | 1.6 | 11.3 | 0.00 | 0.00 | 0.00 | 67 | 1040.7 |
| 20260505195403 | 12 | 43 | 1.6 | 11.3 | 0.00 | 0.00 | 0.00 | 67 | 1040.5 |
| 20260505194503 | 12 | 360 | 3.2 | 14.5 | 0.00 | 0.00 | 0.00 | 66 | 1040.4 |
| 20260505193603 | 12 | 43 | 3.2 | 12.9 | 0.00 | 0.00 | 0.00 | 66 | 1040.1 |
| 20260505192703 | 12 | 59 | 6.4 | 12.9 | 0.00 | 0.00 | 0.00 | 65 | 1040.2 |
| 20260505191803 | 13 | 43 | 3.2 | 12.9 | 0.00 | 0.00 | 0.00 | 65 | 1040.0 |
| 20260505190903 | 13 | 60 | 4.8 | 14.5 | 0.00 | 0.00 | 0.00 | 64 | 1040.1 |
| 20260505190008 | 13 | 59 | 3.2 | 14.5 | 0.00 | 0.00 | 0.00 | 64 | 1040.0 |
| 20260505185403 | 13 | 45 | 1.6 | 12.9 | 0.00 | 0.00 | 0.00 | 64 | 1039.8 |
| 20260505184503 | 13 | 25 | 1.6 | 11.3 | 0.00 | 0.00 | 0.00 | 64 | 1040.0 |
| 20260505183822 | 13 | 39 | 4.8 | 12.9 | 0.00 | 0.00 | 0.00 | 64 | 1039.8 |
| 20260505182914 | 13 | 45 | 3.2 | 12.9 | 0.00 | 0.00 | 0.00 | 64 | 1039.8 |
| 20260505181803 | 14 | 12 | 1.6 | 6.4 | 0.00 | 0.00 | 0.00 | 60 | 1039.7 |
| 20260505180903 | 14 | 43 | 0.0 | 9.7 | 0.00 | 0.00 | 0.00 | 58 | 1039.6 |
| 20260505180216 | 14 | 35 | 3.2 | 11.3 | 0.00 | 0.00 | 0.00 | 57 | 1039.5 |
| 20260505175403 | 15 | 27 | 1.6 | 11.3 | 0.00 | 0.00 | 0.00 | 56 | 1039.9 |
| 20260505174503 | 15 | 24 | 1.6 | 11.3 | 0.00 | 0.00 | 0.00 | 56 | 1039.8 |
| 20260505173603 | 15 | 51 | 1.6 | 6.4 | 0.00 | 0.00 | 0.00 | 55 | 1039.6 |
| 20260505172914 | 15 | 46 | 3.2 | 6.4 | 0.00 | 0.00 | 0.00 | 54 | 1039.6 |
| 20260505171803 | 15 | 3 | 0.0 | 6.4 | 0.00 | 0.00 | 0.00 | 54 | 1039.6 |
| 20260505170903 | 15 | 18 | 1.6 | 6.4 | 0.00 | 0.00 | 0.00 | 54 | 1039.8 |
| 20260505170003 | 15 | 41 | 3.2 | 6.4 | 0.00 | 0.00 | 0.00 | 54 | 1039.7 |
| 20260505165403 | 15 | 23 | 1.6 | 3.2 | 0.00 | 0.00 | 0.00 | 53 | 1039.8 |
| 20260505164503 | 15 | 54 | 1.6 | 9.7 | 0.00 | 0.00 | 0.00 | 52 | 1039.9 |
| 20260505163603 | 15 | 25 | 3.2 | 6.4 | 0.00 | 0.00 | 0.00 | 51 | 1039.9 |
| 20260505162703 | 15 | 47 | 1.6 | 12.9 | 0.00 | 0.00 | 0.00 | 52 | 1039.9 |
| 20260505161803 | 15 | 40 | 1.6 | 3.2 | 0.00 | 0.00 | 0.00 | 51 | 1039.8 |
| 20260505160903 | 16 | 47 | 1.6 | 6.4 | 0.00 | 0.00 | 0.00 | 49 | 1039.7 |
| 20260505152703 | 16 | 37 | 0.0 | 6.4 | 0.00 | 0.00 | 0.00 | 47 | 1039.7 |
| 20260505151803 | 16 | 30 | 0.0 | 9.7 | 0.00 | 0.00 | 0.00 | 46 | 1039.8 |
| 20260505150903 | 16 | 55 | 3.2 | 11.3 | 0.00 | 0.00 | 0.00 | 46 | 1039.9 |
| 20260505124503 | 15 | 29 | 3.2 | 6.4 | 0.00 | 0.00 | 0.00 | 56 | 1040.3 |
| 20260505123815 | 15 | 2 | 3.2 | 9.7 | 0.00 | 0.00 | 0.00 | 57 | 1040.9 |
| 20260505122703 | 15 | 57 | 1.6 | 9.7 | 0.00 | 0.00 | 0.00 | 58 | 1040.4 |
| 20260505121803 | 15 | 38 | 3.2 | 11.3 | 0.00 | 0.00 | 0.00 | 56 | 1040.4 |
| 20260505120903 | 15 | 32 | 6.4 | 11.3 | 0.00 | 0.00 | 0.00 | 55 | 1040.7 |
| 20260505120004 | 15 | 23 | 3.2 | 9.7 | 0.00 | 0.00 | 0.00 | 54 | 1040.4 |
| 20260505115616 | 15 | 55 | 3.2 | 11.3 | 0.00 | 0.00 | 0.00 | 54 | 1040.5 |
| 20260505114716 | 16 | 21 | 3.2 | 6.4 | 0.00 | 0.00 | 0.00 | 56 | 1040.5 |
| 20260505113816 | 16 | 8 | 0.0 | 11.3 | 0.00 | 0.00 | 0.00 | 52 | 1040.5 |
| 20260505112703 | 17 | 92 | 3.2 | 9.7 | 0.00 | 0.00 | 0.00 | 49 | 1040.4 |
| 20260505111803 | 16 | 49 | 4.8 | 14.5 | 0.00 | 0.00 | 0.00 | 52 | 1040.9 |
| 20260505110903 | 16 | 45 | 3.2 | 12.9 | 0.00 | 0.00 | 0.00 | 54 | 1040.5 |
| 20260505101808 | 15 | 44 | 3.2 | 14.5 | 0.00 | 0.00 | 0.00 | 59 | 1041.3 |
| 20260505100903 | 15 | 43 | 0.0 | 11.3 | 0.00 | 0.00 | 0.00 | 59 | 1041.1 |
| 20260505100216 | 15 | 56 | 3.2 | 11.3 | 0.00 | 0.00 | 0.00 | 62 | 1041.3 |
| 20260505095403 | 15 | 47 | 1.6 | 14.5 | 0.00 | 0.00 | 0.00 | 61 | 1041.5 |
| 20260505094503 | 15 | 3 | 3.2 | 6.4 | 0.00 | 0.00 | 0.00 | 61 | 1041.6 |
| 20260505093603 | 13 | 42 | 3.2 | 6.4 | 0.00 | 0.00 | 0.00 | 69 | 1041.6 |
| 20260505092708 | 12 | 51 | 3.2 | 14.5 | 0.00 | 0.00 | 0.00 | 70 | 1041.5 |
| 20260505091803 | 13 | 44 | 3.2 | 6.4 | 0.00 | 0.00 | 0.00 | 69 | 1041.7 |
| 20260505090903 | 12 | 53 | 3.2 | 12.9 | 0.00 | 0.00 | 0.00 | 73 | 1041.8 |
| 20260505090003 | 12 | 68 | 1.6 | 6.4 | 0.00 | 0.00 | 0.00 | 74 | 1041.6 |
| 20260505085403 | 12 | 64 | 0.0 | 9.7 | 0.00 | 0.00 | 0.00 | 74 | 1041.5 |
| 20260505084503 | 12 | 47 | 4.8 | 9.7 | 0.00 | 0.00 | 0.00 | 75 | 1041.7 |
| 20260505083603 | 12 | 58 | 3.2 | 11.3 | 0.00 | 0.00 | 0.00 | 76 | 1041.9 |
| 20260505082703 | 12 | 52 | 3.2 | 11.3 | 0.00 | 0.00 | 0.00 | 76 | 1041.8 |
| 20260505081803 | 12 | 41 | 1.6 | 9.7 | 0.00 | 0.00 | 0.00 | 75 | 1041.6 |
| 20260505080903 | 11 | 67 | 3.2 | 14.5 | 0.00 | 0.00 | 0.00 | 78 | 1041.5 |
| 20260505080003 | 11 | 49 | 3.2 | 6.4 | 0.00 | 0.00 | 0.00 | 80 | 1041.8 |
| 20260505075403 | 11 | 58 | 3.2 | 6.4 | 0.00 | 0.00 | 0.00 | 81 | 1041.7 |
| 20260505074503 | 11 | 57 | 1.6 | 6.4 | 0.00 | 0.00 | 0.00 | 82 | 1041.6 |
| 20260505073813 | 11 | 58 | 3.2 | 3.2 | 0.00 | 0.00 | 0.00 | 82 | 1041.7 |
| 20260505072703 | 11 | 52 | 0.0 | 9.7 | 0.00 | 0.00 | 0.00 | 83 | 1041.6 |
| 20260505071803 | 11 | 45 | 4.8 | 9.7 | 0.00 | 0.00 | 0.00 | 83 | 1041.8 |
| 20260505070903 | 11 | 71 | 0.0 | 6.4 | 0.00 | 0.00 | 0.00 | 85 | 1041.7 |
| 20260505070003 | 10 | 41 | 1.6 | 6.4 | 0.00 | 0.00 | 0.00 | 85 | 1041.8 |
| 20260505065403 | 10 | 342 | 0.0 | 3.2 | 0.00 | 0.00 | 0.00 | 86 | 1041.6 |
| 20260505064503 | 10 | 22 | 0.0 | 3.2 | 0.00 | 0.00 | 0.00 | 86 | 1041.8 |
| 20260505063603 | 10 | 359 | 0.0 | 3.2 | 0.00 | 0.00 | 0.00 | 87 | 1041.9 |
| 20260505062703 | 10 | 359 | 0.0 | 3.2 | 0.00 | 0.00 | 0.00 | 86 | 1041.7 |
| 20260505061803 | 10 | 28 | 0.0 | 3.2 | 0.00 | 0.00 | 0.00 | 86 | 1041.7 |
| 20260505060903 | 10 | 22 | 0.0 | 3.2 | 0.00 | 0.00 | 0.00 | 86 | 1041.9 |
| 20260505060213 | 10 | 22 | 0.0 | 3.2 | 0.00 | 0.00 | 0.00 | 87 | 1041.8 |
| 20260505055403 | 10 | 21 | 0.0 | 3.2 | 0.00 | 0.00 | 0.00 | 87 | 1041.9 |
| 20260505054503 | 10 | 45 | 0.0 | 3.2 | 0.00 | 0.00 | 0.00 | 87 | 1042.0 |
| 20260505053603 | 10 | 67 | 0.0 | 3.2 | 0.00 | 0.00 | 0.00 | 87 | 1041.9 |
| 20260505052917 | 9 | 67 | 0.0 | 3.2 | 0.00 | 0.00 | 0.00 | 88 | 1041.9 |
| 20260505051803 | 9 | 67 | 0.0 | 3.2 | 0.00 | 0.00 | 0.00 | 88 | 1042.0 |
| 20260505050903 | 9 | 67 | 0.0 | 3.2 | 0.00 | 0.00 | 0.00 | 89 | 1042.0 |
| 20260505040903 | 9 | 57 | 1.6 | 3.2 | 0.00 | 0.00 | 0.00 | 89 | 1042.2 |
| 20260505040004 | 9 | 67 | 0.0 | 3.2 | 0.00 | 0.00 | 0.00 | 89 | 1042.0 |
| 20260505035403 | 9 | 67 | 0.0 | 3.2 | 0.00 | 0.00 | 0.00 | 89 | 1042.1 |
| 20260505034713 | 9 | 0 | 0.0 | 0.0 | 0.00 | 0.00 | 0.00 | 90 | 1042.1 |
| 20260505033603 | 9 | 67 | 0.0 | 3.2 | 0.00 | 0.00 | 0.00 | 89 | 1042.1 |
| 20260505032703 | 9 | 67 | 0.0 | 3.2 | 0.00 | 0.00 | 0.00 | 90 | 1042.1 |
| 20260505031803 | 9 | 67 | 0.0 | 3.2 | 0.00 | 0.00 | 0.00 | 90 | 1042.2 |
| 20260505030903 | 9 | 60 | 1.6 | 3.2 | 0.00 | 0.00 | 0.00 | 90 | 1041.9 |
| 20260505030003 | 9 | 54 | 1.6 | 3.2 | 0.00 | 0.00 | 0.00 | 89 | 1042.1 |
| 20260505025403 | 9 | 45 | 0.0 | 3.2 | 0.00 | 0.00 | 0.00 | 89 | 1042.2 |
| 20260505024503 | 10 | 45 | 0.0 | 3.2 | 0.00 | 0.00 | 0.00 | 88 | 1042.2 |
| 20260505023603 | 10 | 42 | 0.0 | 3.2 | 0.00 | 0.00 | 0.00 | 88 | 1042.0 |
| 20260505022703 | 10 | 38 | 0.0 | 3.2 | 0.00 | 0.00 | 0.00 | 88 | 1042.1 |
| 20260505021803 | 10 | 57 | 1.6 | 6.4 | 0.00 | 0.00 | 0.00 | 87 | 1042.0 |
| 20260505020903 | 10 | 71 | 3.2 | 6.4 | 0.00 | 0.00 | 0.00 | 87 | 1042.0 |
| 20260505020003 | 11 | 59 | 1.6 | 3.2 | 0.00 | 0.00 | 0.00 | 86 | 1042.0 |
| 20260505015403 | 11 | 55 | 1.6 | 6.4 | 0.00 | 0.00 | 0.00 | 86 | 1042.1 |
| 20260505014503 | 11 | 46 | 1.6 | 6.4 | 0.00 | 0.00 | 0.00 | 85 | 1042.4 |
| 20260505013603 | 11 | 48 | 0.0 | 6.4 | 0.00 | 0.00 | 0.00 | 85 | 1042.4 |
| 20260505012703 | 11 | 53 | 3.2 | 6.4 | 0.00 | 0.00 | 0.00 | 85 | 1042.4 |
| 20260505011803 | 11 | 64 | 1.6 | 6.4 | 0.00 | 0.00 | 0.00 | 85 | 1042.4 |
| 20260505010903 | 11 | 48 | 0.0 | 6.4 | 0.00 | 0.00 | 0.00 | 88 | 1042.7 |
| 20260505010003 | 11 | 47 | 1.6 | 6.4 | 0.00 | 0.00 | 0.00 | 88 | 1042.5 |
| 20260505005403 | 11 | 37 | 1.6 | 3.2 | 0.00 | 0.00 | 0.00 | 87 | 1042.7 |
| 20260505004503 | 11 | 39 | 0.0 | 6.4 | 0.00 | 0.00 | 0.00 | 87 | 1042.5 |
| 20260505003608 | 11 | 55 | 1.6 | 6.4 | 0.00 | 0.00 | 0.00 | 87 | 1042.7 |
| 20260505002703 | 11 | 47 | 1.6 | 3.2 | 0.00 | 0.00 | 0.00 | 86 | 1042.7 |
| 20260505002012 | 11 | 49 | 1.6 | 3.2 | 0.00 | 0.00 | 0.00 | 84 | 1042.6 |
| 20260505000903 | 11 | 59 | 1.6 | 6.4 | 0.00 | 0.00 | 0.00 | 83 | 1042.7 |
| 20260505000218 | 11 | 64 | 1.6 | 6.4 | 0.00 | 0.00 | 0.00 | 82 | 1042.8 |
| 20260504235403 | 11 | 56 | 0.0 | 6.4 | 0.00 | 0.00 | 0.00 | 82 | 1043.0 |
| 20260504234503 | 11 | 51 | 0.0 | 6.4 | 0.00 | 0.00 | 0.00 | 82 | 1042.9 |
| 20260504233603 | 11 | 62 | 1.6 | 6.4 | 0.00 | 0.00 | 0.00 | 82 | 1043.0 |
| 20260504232703 | 11 | 59 | 3.2 | 6.4 | 0.00 | 0.00 | 0.00 | 82 | 1043.1 |
| 20260504231803 | 11 | 59 | 3.2 | 6.4 | 0.00 | 0.00 | 0.00 | 82 | 1043.0 |
| 20260504230903 | 11 | 52 | 0.0 | 6.4 | 0.00 | 0.00 | 0.00 | 82 | 1042.9 |
| 20260504230003 | 11 | 56 | 1.6 | 6.4 | 0.00 | 0.00 | 0.00 | 82 | 1043.1 |
| 20260504225403 | 11 | 64 | 1.6 | 6.4 | 0.00 | 0.00 | 0.00 | 82 | 1043.1 |
| 20260504224503 | 11 | 51 | 3.2 | 6.4 | 0.00 | 0.00 | 0.00 | 81 | 1043.0 |
| 20260504223603 | 11 | 65 | 0.0 | 6.4 | 0.00 | 0.00 | 0.00 | 81 | 1043.2 |
| 20260504222703 | 11 | 48 | 1.6 | 6.4 | 0.00 | 0.00 | 0.00 | 81 | 1043.2 |
| 20260504221803 | 11 | 46 | 3.2 | 9.7 | 0.00 | 0.00 | 0.00 | 81 | 1043.3 |
| 20260504220903 | 11 | 60 | 1.6 | 6.4 | 0.00 | 0.00 | 0.00 | 81 | 1043.1 |
| 20260504220003 | 12 | 51 | 3.2 | 9.7 | 0.00 | 0.00 | 0.00 | 80 | 1043.2 |
| 20260504215403 | 12 | 48 | 1.6 | 11.3 | 0.00 | 0.00 | 0.00 | 80 | 1043.5 |
| 20260504214503 | 12 | 52 | 3.2 | 6.4 | 0.00 | 0.00 | 0.00 | 80 | 1043.4 |
| 20260504213603 | 12 | 55 | 0.0 | 9.7 | 0.00 | 0.00 | 0.00 | 80 | 1043.1 |
| 20260504212703 | 12 | 56 | 3.2 | 9.7 | 0.00 | 0.00 | 0.00 | 80 | 1043.3 |
| 20260504211803 | 12 | 45 | 3.2 | 12.9 | 0.00 | 0.00 | 0.00 | 80 | 1043.2 |